Flag for Canada Weather past 2 weeks in Norfolk, Ontario, Canada

Now
52 °F

Cool.


Feels Like: 52 °F
Forecast: 50 / 72 °F
Wind: 3 mph from Northwest

Location: Delhi CS

Current Time: Aug 28, 2014 at 9:12:41 AM

Latest Report: Aug 28, 2014 at 8:00 AM


Visibility: N/A

Pressure: 30.10 "Hg

Humidity: 92%

Dew point: 50 °F

Location of NorfolkLocation

Historic Weather in Norfolk — Graph

°F

Norfolk temperature yesterday

Maximum temperature yesterday: 77 °F (at 3:00 PM)
Minimum temperature yesterday: 58 °F (at 11:00 PM)
Average temperature yesterday: 69 °F

Past Weeks' High & Low Weather Summary

 TemperatureHumidityPressure
High83 °F (Aug 26, 2:00 PM)100% (Aug 18, 12:00 AM)30.14 "Hg (Aug 18, 12:00 AM)
Low47 °F (Aug 19, 5:00 AM)40% (Aug 15, 4:00 PM)29.78 "Hg (Aug 13, 7:00 AM)
Average66 °F78%29.97 "Hg
* Reported Aug 13 7:00 AM — Aug 28 7:00 AM, Norfolk, Weather by CustomWeather, © 2014

Note: Actual official high and low records may vary slightly from our data, if they occured in-between our weather recording intervals... More about our weather records

Advertising

Norfolk weather history for previous 24 hours

 ConditionsComfort  
Time TempWeatherWind HumidityBarometerVisibility
7:00 AM
Aug 28
48 °FCool.2 mph95%30.09 "HgN/A
6:00 AM49 °FCool.2 mph94%30.08 "HgN/A
5:00 AM51 °FCool.5 mph92%30.06 "HgN/A
4:00 AM51 °FCool.3 mph96%30.06 "HgN/A
3:00 AM49 °FCool.3 mph96%30.06 "HgN/A
2:00 AM52 °FCool.2 mph95%30.08 "HgN/A
1:00 AM52 °FCool.2 mph89%30.08 "HgN/A
12:00 AM54 °FCool.2 mph88%30.09 "HgN/A
11:00 PM
Aug 27
58 °FCool.3 mph79%30.08 "HgN/A
10:00 PM60 °FCool.3 mph76%30.07 "HgN/A
9:00 PM63 °FMild.8 mph71%30.06 "HgN/A
8:00 PM66 °FMild.8 mph63%30.05 "HgN/A
7:00 PM70 °FMild.9 mph57%30.03 "HgN/A
6:00 PM72 °FMild.10 mph56%30.03 "HgN/A
5:00 PM74 °FMild.10 mph51%30.03 "HgN/A
4:00 PM76 °FMild.12 mph45%30.03 "HgN/A
3:00 PM77 °FMild.12 mph43%30.03 "HgN/A
2:00 PM76 °FMild.8 mph45%30.04 "HgN/A
1:00 PM76 °FMild.7 mph46%30.04 "HgN/A
12:00 PM73 °FMild.9 mph49%30.06 "HgN/A
11:00 AM71 °FMild.9 mph51%30.06 "HgN/A
10:00 AM70 °FMild.8 mph52%30.05 "HgN/A
9:00 AM67 °FMild.6 mph68%30.06 "HgN/A
Weather by CustomWeather, © 2014

See weather overviewHow to use our weather pages